AirNav   Textron
 
 969 users online  

MY26 Minnesota Valley Health Center Heliport
Le Sueur, Minnesota, USA

GOING TO LE SUEUR?


FAA INFORMATION EFFECTIVE 14 SEPTEMBER 2017

Location

FAA Identifier: MY26
Lat/Long: 44-27-11.7727N / 093-54-56.3704W
44-27.196212N / 093-54.939507W
44.4532702 / -93.9156584
(estimated)
Elevation: 839 ft. / 256 m (estimated)
Variation: 02E (2000)
From city: 1 mile SE of LE SUEUR, MN
Time zone: UTC -5 (UTC -6 during Standard Time)
Zip code: 56058

Heliport Operations

Heliport use: Private use. Permission required prior to landing
Activation date: 11/2002
Control tower: no
ARTCC: MINNEAPOLIS CENTER
FSS: PRINCETON FLIGHT SERVICE STATION
Attendance: UNATNDD
Wind indicator: yes
Segmented circle: no
Lights: SS-SR

Heliport Communications

WX AWOS-3PT at MKT (14 nm S): 118.175 (507-625-3726)
WX AWOS-3 at GYL (19 nm N): 119.625 (320-864-5830)

Nearby radio navigation aids

VOR radial/distance  VOR name  Freq  Var
MKTr352/14.0MANKATO VOR/DME110.8007E
FOWr301/27.8HALFWAY VOR/DME111.2002E
FCMr221/30.1FLYING CLOUD VOR/DME117.7001E
FGTr245/33.1FARMINGTON VORTAC115.7006E
MSPr225/39.3MINNEAPOLIS VOR/DME115.3002E

 
NDB name  Hdg/Dist  Freq  Var  ID
GLENCOE155/19.840703EGYL --. -.-- .-..
ST JAMES043/39.226001EJYG .--- -.-- --.

Heliport Services

Runway Information

Helipad H1

Dimensions: 50 x 50 ft. / 15 x 15 m
Surface: concrete
Runway edge lights: FLD
Latitude: 44-27.196212N
Longitude: 093-54.939507W
Elevation: 839.0 ft.
Traffic pattern: leftleft

Heliport Ownership and Management from official FAA records

Ownership: Privately-owned
Owner: CITY OF LE SUEUR
621 S 4TH ST
LE SUEUR, MN 56058
Phone (507) 665-3375
Manager: RUSS LAWRENCE
621 S 4TH ST
LE SUEUR, MN 56058
Phone (507) 665-3375
RUSS LAWRENCE 621 S. 4TH ST LE SUEUR, MN 56058 612-669-8091

Instrument Procedures

There are no published instrument procedures at MY26.

Some nearby airports with instrument procedures:

KMKT - Mankato Regional Airport (14 nm S)
KGYL - Glencoe Municipal Airport (19 nm N)
KULM - New Ulm Municipal Airport (26 nm W)
KFBL - Faribault Municipal Airport (27 nm E)
KACQ - Waseca Municipal Airport (28 nm SE)
 
Loc | Ops | Rwys | IFR | FBO | Links
Com | Nav | Svcs | Stats | Notes


 
Area around MY26 (Minnesota Valley Health Center Heliport)
 
Road maps at: MapQuest Bing Google
 
Aerial photo
No photo
 
Sectional chart

 
Airport distance calculator
Flying to Minnesota Valley Health Center Heliport? Find the distance to fly.

From to MY26

Sunrise and sunset
Times for 23-Sep-2017
 Local
(UTC-5)
 Zulu
(UTC)
Morning civil twilight06:3611:36
Sunrise07:0512:05
Sunset19:1100:11
Evening civil twilight19:4000:40

Current date and time
Zulu (UTC)  23-Sep-2017 13:34:33
Local (UTC-5)  23-Sep-2017 08:34:33
 
METAR
KMKT 
14nm S 
231256Z AUTO 19007KT 10SM CLR 22/19 A2996 RMK AO2 SLP141 T02220194
KGYL 
19nm N 
231259Z AUTO 18004KT 10SM OVC028 22/21 A2995 RMK AO2
KULM 
26nm W 
231314Z AUTO 19006KT 10SM OVC027 22/19 A2995 RMK AO2
KFBL 
27nm E 
231314Z AUTO 17006KT 10SM CLR 23/19 A2998 RMK AO2
KACQ 
28nm SE 
231312Z AUTO 19007KT 10SM SCT060 22/18 A2999 RMK AO2
TAF
KMKT 
14nm S 
231120Z 2312/2412 18010KT P6SM SCT120 BKN250 FM231700 18010KT P6SM SCT050 FM240100 15006KT P6SM SCT200
NOTAMs
Click for the latest NOTAMs
NOTAMs are issued by the DoD/FAA and will open in a separate window not controlled by AirNav.

 

 
 

Would you like to see your business listed on this page?

 If your business provides an interesting product or service to pilots, flight crews, aircraft, or users of the Minnesota Valley Health Center Heliport, you should consider listing it here.  To start the listing process, click on the button below
 
Add a business
 

Other Pages about Minnesota Valley Health Center Heliport

Update a link
 
Copyright © AirNav, LLC. All rights reserved. Privacy Policy  Contact